Estaca de Bares, Galicia

latitud = 43° 47' 14''N | longitud = 007° 41' 00''W
59 metros sobre el nivel del mar | datos mensuales

Fecha, hora, temperatura, viento dirección y velocidad, humedad y presión.

  • 21-06-2018 22:00:00 | 16.30°C | Este |48.00 km/h | 93.00% | 1011.50 hPa
  • 21-06-2018 21:00:00 | 16.30°C | Nordeste |47.00 km/h | 93.00% | 1011.60 hPa
  • 21-06-2018 20:00:00 | 16.60°C | Este |44.00 km/h | 92.00% | 1011.70 hPa
  • 21-06-2018 19:00:00 | 16.70°C | Este |43.00 km/h | 91.00% | 1011.30 hPa
  • 21-06-2018 18:00:00 | 16.60°C | Nordeste |41.00 km/h | 92.00% | 1011.40 hPa
  • 21-06-2018 17:00:00 | 16.90°C | Nordeste |33.00 km/h | 91.00% | 1011.70 hPa
  • 21-06-2018 16:00:00 | 17.20°C | Este |37.00 km/h | 90.00% | 1011.50 hPa
  • 21-06-2018 15:00:00 | 17.20°C | Este |39.00 km/h | 91.00% | 1011.40 hPa
  • 21-06-2018 14:00:00 | 17.10°C | Este |37.00 km/h | 93.00% | 1011.60 hPa
  • 21-06-2018 13:00:00 | 17.00°C | Este |33.00 km/h | 94.00% | 1011.70 hPa
  • 21-06-2018 12:00:00 | 16.60°C | Este |35.00 km/h | 94.00% | 1011.50 hPa
  • 21-06-2018 11:00:00 | 16.40°C | Este |37.00 km/h | 94.00% | 1011.20 hPa
  • 21-06-2018 10:00:00 | 16.20°C | Este |36.00 km/h | 94.00% | 1010.70 hPa
  • 21-06-2018 09:00:00 | 16.00°C | Nordeste |38.00 km/h | 94.00% | 1010.40 hPa
  • 21-06-2018 08:00:00 | 15.90°C | Nordeste |36.00 km/h | 95.00% | 1010.30 hPa
  • 21-06-2018 07:00:00 | 16.40°C | Este |35.00 km/h | 95.00% | 1010.00 hPa
  • 21-06-2018 06:00:00 | 16.50°C | Este |38.00 km/h | 95.00% | 1009.80 hPa
  • 21-06-2018 05:00:00 | 16.90°C | Este |33.00 km/h | 94.00% | 1009.70 hPa
  • 21-06-2018 04:00:00 | 17.00°C | Este |32.00 km/h | 94.00% | 1009.70 hPa
  • 21-06-2018 03:00:00 | 17.10°C | Este |30.00 km/h | 94.00% | 1010.20 hPa
  • 21-06-2018 02:00:00 | 17.20°C | Este |30.00 km/h | 94.00% | 1010.40 hPa
  • 21-06-2018 01:00:00 | 17.00°C | Este |28.00 km/h | 94.00% | 1010.50 hPa
  • 21-06-2018 00:00:00 | 17.30°C | Este |31.00 km/h | 94.00% | 1010.50 hPa
  • 20-06-2018 23:00:00 | 17.50°C | Este |23.00 km/h | 94.00% | 1010.00 hPa